�N����,����,�~����,�C��,���x,�C��,����,���ϕ���,�ő�u�ԕ���,�ő厞����,���˗�,�I�_���x,�n�����x,�ő啗���N��,DTYPE
"16/05/11","00:10",0.2,19.1,97.3,995.8,258.6,0.5,1.1,223.6,0.00,18.7,17.8,"00:09:04",1
"16/05/11","00:20",0.0,19.1,97.3,995.1,293.3,0.7,1.8,323.6,0.00,18.7,18.0,"00:17:52",1
"16/05/11","00:30",0.0,19.2,97.4,994.6,211.2,0.8,2.0,195.3,0.00,18.8,17.8,"00:20:40",1
"16/05/11","00:40",0.2,19.2,97.4,994.6,285.5,0.5,1.3,229.8,0.00,18.8,17.8,"00:31:52",1
"16/05/11","00:50",0.2,19.1,97.4,994.1,322.6,0.8,1.7,346.9,0.00,18.7,17.8,"00:40:24",1
"16/05/11","01:00",0.0,19.2,97.4,993.9,339.5,0.5,1.1,69.9,0.00,18.8,17.9,"00:52:56",1
"16/05/11","01:10",0.0,19.2,97.4,993.4,234.2,0.7,1.7,233.2,0.00,18.8,18.0,"01:03:36",1
"16/05/11","01:20",0.2,19.2,97.5,992.7,202.9,0.7,1.9,227.5,0.00,18.8,17.7,"01:17:52",1
"16/05/11","01:30",1.4,19.3,97.5,993.0,233.0,1.6,3.4,234.3,0.00,18.9,18.0,"01:26:48",1
"16/05/11","01:40",1.2,19.4,97.4,993.0,200.2,2.1,3.5,197.9,0.00,19.0,18.0,"01:36:48",1
"16/05/11","01:50",0.8,19.5,97.4,993.9,217.0,1.6,2.8,227.4,0.00,19.1,17.7,"01:40:40",1
"16/05/11","02:00",1.2,19.5,97.4,993.9,332.9,1.1,2.1,344.1,0.00,19.1,18.0,"01:59:44",1
"16/05/11","02:10",1.2,19.5,97.4,993.9,10.5,0.7,1.9,2.6,0.00,19.1,18.0,"02:00:32",1
"16/05/11","02:20",0.6,19.5,97.4,993.2,347.9,0.5,1.3,347.7,0.00,19.1,17.9,"02:16:40",1
"16/05/11","02:30",0.0,19.5,97.4,993.2,332.4,0.8,1.6,346.0,0.00,19.1,18.0,"02:25:28",1
"16/05/11","02:40",0.0,19.6,97.6,993.2,5.5,0.8,2.0,23.6,0.00,19.2,18.0,"02:39:20",1
"16/05/11","02:50",0.0,21.0,97.8,992.7,228.9,1.6,4.3,211.2,0.00,20.7,18.0,"02:49:20",1
"16/05/11","03:00",0.0,21.8,96.1,992.7,251.8,1.7,5.4,222.5,0.00,21.2,18.1,"02:55:20",1
"16/05/11","03:10",0.0,22.2,94.6,993.2,264.7,1.3,4.2,200.6,0.00,21.3,18.0,"03:02:32",1
"16/05/11","03:20",0.0,22.0,91.6,992.7,220.4,2.0,4.4,241.1,0.00,20.6,17.8,"03:15:28",1
"16/05/11","03:30",0.0,21.6,92.3,993.0,239.6,0.6,1.8,47.4,0.00,20.3,18.1,"03:20:48",1
"16/05/11","03:40",0.0,21.8,93.2,992.5,277.3,1.1,2.7,228.2,0.00,20.7,18.1,"03:36:40",1
"16/05/11","03:50",0.0,22.3,90.3,992.5,240.5,1.5,2.7,352.3,0.00,20.7,18.1,"03:41:20",1
"16/05/11","04:00",0.0,21.7,91.0,992.7,200.0,1.7,4.2,226.6,0.00,20.2,18.2,"03:57:44",1
"16/05/11","04:10",0.0,21.6,92.3,992.2,313.1,1.0,1.9,350.9,0.00,20.3,18.1,"04:03:12",1
"16/05/11","04:20",0.0,21.7,92.1,992.5,232.4,0.8,2.9,342.8,0.00,20.4,18.2,"04:18:48",1
"16/05/11","04:30",0.0,22.0,92.2,992.7,270.9,1.2,2.9,249.3,0.00,20.7,18.1,"04:26:56",1
"16/05/11","04:40",0.0,22.6,89.3,992.5,233.8,1.5,3.7,189.7,0.00,20.8,18.2,"04:32:32",1
"16/05/11","04:50",0.0,22.6,88.6,992.7,229.5,2.1,6.2,236.0,0.00,20.7,18.2,"04:46:40",1
"16/05/11","05:00",0.0,22.9,86.7,992.2,222.7,2.7,6.5,189.1,0.00,20.6,18.3,"04:58:56",1
"16/05/11","05:10",0.0,23.0,86.1,992.7,236.6,2.2,5.6,193.9,0.00,20.6,18.4,"05:06:16",1
"16/05/11","05:20",0.0,22.9,85.7,993.0,234.2,2.3,6.3,221.3,0.00,20.4,18.2,"05:19:52",1
"16/05/11","05:30",0.0,22.9,85.2,993.2,251.1,2.0,5.2,234.6,0.00,20.3,18.3,"05:20:16",1
"16/05/11","05:40",0.0,22.9,84.9,993.9,235.3,3.2,6.3,204.1,0.00,20.3,18.2,"05:32:40",1
"16/05/11","05:50",0.6,22.4,86.2,993.4,257.2,3.0,8.1,346.0,0.00,20.0,18.1,"05:40:56",1
"16/05/11","06:00",0.4,21.9,87.6,993.4,269.8,2.0,5.6,233.2,0.00,19.8,18.4,"05:58:08",1
"16/05/11","06:10",0.2,21.7,88.4,993.4,289.4,1.6,4.0,6.7,0.00,19.7,18.3,"06:02:08",1
"16/05/11","06:20",0.0,21.5,89.4,993.7,281.2,1.0,3.3,313.2,0.01,19.7,18.2,"06:13:12",1
"16/05/11","06:30",0.0,21.5,89.6,993.7,267.6,1.1,2.8,231.5,0.01,19.8,18.4,"06:27:20",1
"16/05/11","06:40",0.0,21.8,87.2,994.1,248.9,1.8,5.5,237.0,0.02,19.6,18.3,"06:31:36",1
"16/05/11","06:50",0.0,21.8,86.7,994.4,260.9,1.6,3.4,251.8,0.01,19.5,18.3,"06:47:28",1
"16/05/11","07:00",0.0,21.7,86.7,994.6,260.7,1.6,4.7,208.8,0.01,19.4,18.5,"06:59:36",1
"16/05/11","07:10",0.0,21.4,87.5,994.8,277.6,1.3,5.4,221.7,0.00,19.3,18.4,"07:02:40",1
"16/05/11","07:20",0.0,21.5,87.1,994.6,271.0,1.5,2.5,215.6,0.00,19.3,18.5,"07:14:00",1
"16/05/11","07:30",0.0,21.5,86.5,994.6,270.9,1.7,4.8,230.3,0.00,19.2,18.4,"07:22:56",1
"16/05/11","07:40",0.0,21.4,86.4,994.6,276.4,1.5,3.4,215.0,0.01,19.1,18.5,"07:34:32",1
"16/05/11","07:50",0.0,21.4,86.1,995.1,275.1,1.2,3.6,269.5,0.01,19.0,18.6,"07:41:44",1
"16/05/11","08:00",0.0,21.5,85.9,995.1,276.1,1.1,2.2,305.8,0.04,19.1,18.4,"07:59:04",1
"16/05/11","08:10",0.0,21.6,84.5,994.8,256.9,1.3,3.4,222.3,0.05,18.9,18.4,"08:00:24",1
"16/05/11","08:20",0.0,21.7,85.3,994.8,222.8,1.2,3.6,229.2,0.05,19.2,18.4,"08:10:40",1
"16/05/11","08:30",0.0,21.2,85.7,995.3,240.9,1.1,2.7,225.3,0.04,18.7,18.5,"08:29:28",1
"16/05/11","08:40",0.0,21.2,84.4,995.3,247.6,1.8,4.8,222.6,0.05,18.5,18.4,"08:39:52",1
"16/05/11","08:50",0.0,21.4,83.3,995.6,251.8,1.5,3.9,235.4,0.06,18.5,18.5,"08:48:56",1
"16/05/11","09:00",0.0,21.4,85.8,995.3,220.1,1.8,3.7,222.0,0.08,19.0,18.4,"08:53:44",1
"16/05/11","09:10",0.0,21.3,83.0,996.0,233.4,1.5,2.7,224.0,0.08,18.3,18.4,"09:03:12",1
"16/05/11","09:20",0.0,21.6,84.4,996.0,241.4,1.2,4.7,238.2,0.10,18.9,18.6,"09:11:36",1
"16/05/11","09:30",0.0,21.6,80.9,996.0,263.5,1.5,2.7,258.1,0.10,18.2,18.4,"09:24:40",1
"16/05/11","09:40",0.0,21.3,81.9,995.8,259.4,1.6,3.5,232.8,0.11,18.1,18.5,"09:39:44",1
"16/05/11","09:50",0.0,21.3,82.2,996.0,259.9,1.5,2.5,252.4,0.07,18.2,18.7,"09:42:08",1
"16/05/11","10:00",0.0,21.2,81.7,996.0,280.3,1.3,2.5,239.3,0.06,18.0,18.4,"09:58:00",1
"16/05/11","10:10",0.0,20.9,81.9,996.3,285.6,1.2,2.2,318.0,0.10,17.7,18.7,"10:06:56",1
"16/05/11","10:20",0.0,20.7,81.8,996.5,299.2,1.5,2.8,327.7,0.10,17.5,18.8,"10:14:56",1
"16/05/11","10:30",0.0,20.7,82.1,996.7,301.7,1.3,2.9,346.6,0.07,17.6,18.7,"10:29:04",1
"16/05/11","10:40",0.0,20.6,81.4,997.2,296.6,1.5,2.8,327.9,0.08,17.3,18.9,"10:36:40",1
"16/05/11","10:50",0.0,20.0,82.6,997.0,298.6,1.5,2.5,301.0,0.10,17.0,18.6,"10:41:12",1
"16/05/11","11:00",0.0,19.9,82.8,997.7,307.4,1.8,3.4,344.4,0.05,16.9,18.7,"10:52:48",1
"16/05/11","11:10",0.0,19.4,83.6,997.7,313.8,2.1,3.7,311.7,0.02,16.6,18.7,"11:09:52",1
"16/05/11","11:20",0.0,19.1,82.8,998.2,326.8,2.8,5.1,357.8,0.02,16.1,18.6,"11:18:08",1
"16/05/11","11:30",0.0,19.0,82.7,997.9,319.4,2.5,5.5,344.9,0.05,16.0,18.8,"11:24:48",1
"16/05/11","11:40",0.0,19.3,83.0,998.2,323.5,2.2,4.8,344.3,0.08,16.4,18.3,"11:31:36",1
"16/05/11","11:50",0.0,19.1,81.3,998.4,310.8,2.3,5.8,314.5,0.06,15.9,18.6,"11:45:20",1
"16/05/11","12:00",0.0,18.7,81.3,998.2,325.1,3.1,5.8,333.8,0.05,15.5,18.7,"11:56:56",1
"16/05/11","12:10",0.0,18.5,82.0,998.4,330.5,3.0,5.8,339.8,0.04,15.4,18.7,"12:05:20",1
"16/05/11","12:20",0.0,18.4,81.3,998.4,328.0,2.8,6.4,342.5,0.04,15.2,18.7,"12:18:08",1
"16/05/11","12:30",0.0,18.4,81.0,998.6,330.0,2.6,4.3,338.6,0.03,15.1,18.6,"12:24:16",1
"16/05/11","12:40",0.0,18.3,80.7,998.4,332.1,2.7,5.1,334.5,0.04,15.0,18.6,"12:32:24",1
"16/05/11","12:50",0.0,18.4,80.7,998.6,333.4,2.5,4.3,334.0,0.04,15.1,18.5,"12:47:20",1
"16/05/11","13:00",0.0,18.4,81.0,998.6,333.7,2.7,4.9,337.4,0.06,15.1,18.4,"12:55:12",1
"16/05/11","13:10",0.0,18.3,80.2,998.9,341.2,2.8,5.5,349.3,0.06,14.9,18.5,"13:09:20",1
"16/05/11","13:20",0.0,18.2,80.0,999.3,324.1,2.6,4.0,336.7,0.05,14.7,18.4,"13:13:28",1
"16/05/11","13:30",0.0,18.2,80.1,999.1,321.6,3.0,5.2,354.6,0.08,14.8,18.1,"13:27:12",1
"16/05/11","13:40",0.0,18.3,79.8,999.3,322.3,2.6,4.7,323.0,0.07,14.8,18.5,"13:33:52",1
"16/05/11","13:50",0.0,18.3,79.1,999.6,318.1,2.3,3.5,332.1,0.07,14.7,18.3,"13:41:28",1
"16/05/11","14:00",0.0,18.4,79.7,999.6,325.6,2.3,4.1,346.6,0.05,14.9,18.4,"13:53:52",1
"16/05/11","14:10",0.0,18.3,79.2,999.6,317.3,1.8,3.2,334.8,0.04,14.7,18.4,"14:05:52",1
"16/05/11","14:20",0.0,18.3,76.6,999.6,310.8,1.7,3.6,339.8,0.08,14.2,18.6,"14:18:40",1
"16/05/11","14:30",0.0,18.2,76.9,999.8,323.9,2.3,4.3,342.3,0.05,14.1,18.2,"14:28:32",1
"16/05/11","14:40",0.0,18.0,78.4,999.6,342.1,2.2,4.1,343.2,0.05,14.2,18.4,"14:35:20",1
"16/05/11","14:50",0.0,17.9,78.4,999.1,345.9,2.8,5.2,337.8,0.13,14.1,18.4,"14:42:56",1
"16/05/11","15:00",0.0,18.2,78.3,999.3,336.5,2.5,4.7,351.9,0.14,14.4,18.4,"14:55:04",1
"16/05/11","15:10",0.0,18.2,77.5,999.6,343.6,2.7,5.7,357.5,0.08,14.2,18.4,"15:08:16",1
"16/05/11","15:20",0.0,18.0,76.2,1000.0,340.8,2.6,5.5,341.9,0.07,13.8,18.5,"15:13:28",1
"16/05/11","15:30",0.0,17.9,76.0,1000.0,342.0,3.0,6.4,347.3,0.07,13.7,18.4,"15:25:20",1
"16/05/11","15:40",0.2,17.8,76.1,1000.0,340.3,2.6,4.7,6.4,0.06,13.6,18.3,"15:32:16",1
"16/05/11","15:50",0.0,17.7,76.4,1000.5,345.0,2.3,4.9,352.9,0.05,13.5,18.2,"15:45:20",1
"16/05/11","16:00",0.0,17.5,77.0,1000.5,347.6,3.0,5.2,352.1,0.04,13.5,18.3,"15:59:52",1
"16/05/11","16:10",0.0,17.2,76.9,1001.0,0.1,3.2,6.4,52.1,0.03,13.2,18.4,"16:09:16",1
"16/05/11","16:20",0.0,17.3,77.6,1001.0,349.0,3.2,6.3,344.5,0.06,13.4,18.1,"16:19:28",1
"16/05/11","16:30",0.0,17.7,76.3,1001.0,344.9,2.6,6.0,344.1,0.11,13.5,18.3,"16:28:16",1
"16/05/11","16:40",0.0,18.0,76.6,1001.0,344.4,2.3,5.2,347.8,0.10,13.9,18.2,"16:32:56",1
"16/05/11","16:50",0.0,18.1,75.4,1001.5,348.9,2.7,6.2,25.0,0.10,13.7,18.2,"16:42:56",1
"16/05/11","17:00",0.0,18.2,74.2,1001.0,352.2,2.8,5.9,350.4,0.14,13.6,18.1,"16:55:20",1
"16/05/11","17:10",0.0,18.5,72.4,1001.5,347.1,3.2,6.6,348.5,0.13,13.5,18.3,"17:01:36",1
"16/05/11","17:20",0.0,18.4,72.4,1001.7,337.8,2.8,5.2,351.2,0.08,13.4,18.2,"17:16:00",1
"16/05/11","17:30",0.0,18.4,74.2,1001.9,312.9,2.0,4.4,354.0,0.06,13.8,18.1,"17:20:32",1
"16/05/11","17:40",0.0,18.1,73.3,1001.5,330.4,2.3,5.4,343.5,0.04,13.3,18.2,"17:33:12",1
"16/05/11","17:50",0.0,18.0,72.8,1001.9,350.3,2.1,4.2,359.1,0.03,13.1,18.1,"17:47:36",1
"16/05/11","18:00",0.0,17.7,73.6,1001.9,346.1,2.1,4.2,345.6,0.01,13.0,18.2,"17:58:08",1
"16/05/11","18:10",0.0,17.1,74.5,1002.4,348.4,2.0,4.2,349.6,0.00,12.6,18.2,"18:08:40",1
"16/05/11","18:20",0.0,16.7,76.7,1002.6,342.3,1.7,3.7,355.6,0.00,12.6,18.1,"18:10:08",1
"16/05/11","18:30",0.0,16.4,77.1,1002.9,341.8,2.1,4.7,341.8,0.00,12.4,18.1,"18:21:28",1
"16/05/11","18:40",0.0,16.2,78.4,1003.1,317.3,1.7,2.8,339.4,0.00,12.5,17.8,"18:30:16",1
"16/05/11","18:50",0.0,15.8,79.9,1003.1,333.3,1.6,2.9,346.8,0.00,12.4,18.0,"18:40:40",1
"16/05/11","19:00",0.0,15.6,81.0,1003.4,329.8,1.7,4.2,348.5,0.00,12.4,17.9,"18:58:24",1
"16/05/11","19:10",0.0,15.4,81.5,1003.1,331.4,1.5,2.7,347.5,0.00,12.3,17.7,"19:04:00",1
"16/05/11","19:20",0.0,15.2,82.4,1003.4,326.9,1.7,2.8,338.3,0.00,12.3,17.8,"19:10:40",1
"16/05/11","19:30",0.0,15.2,82.8,1003.6,317.1,1.3,2.7,329.9,0.00,12.3,17.7,"19:22:32",1
"16/05/11","19:40",0.0,15.3,82.9,1003.6,315.6,1.2,2.1,336.6,0.00,12.5,17.7,"19:37:12",1
"16/05/11","19:50",0.0,15.5,82.1,1003.8,313.0,1.2,2.6,329.3,0.00,12.5,17.5,"19:40:48",1
"16/05/11","20:00",0.0,15.5,82.0,1004.3,268.8,0.5,1.6,303.7,0.00,12.5,17.6,"19:53:12",1
"16/05/11","20:10",0.0,15.6,81.4,1004.3,337.1,0.6,1.2,319.5,0.00,12.5,17.5,"20:02:48",1
"16/05/11","20:20",0.0,15.6,80.3,1004.5,348.5,1.0,1.9,356.6,0.00,12.3,17.5,"20:13:44",1
"16/05/11","20:30",0.0,15.4,80.2,1004.8,3.6,1.1,2.5,4.2,0.00,12.0,17.6,"20:26:00",1
"16/05/11","20:40",0.0,15.1,81.2,1004.5,344.6,1.6,2.8,333.9,0.00,11.9,17.4,"20:34:56",1
"16/05/11","20:50",0.0,14.8,82.7,1005.0,328.2,1.3,2.0,339.5,0.00,11.9,17.5,"20:45:52",1
"16/05/11","21:00",0.0,14.4,84.4,1005.0,307.0,1.2,1.9,321.2,0.00,11.8,17.5,"20:54:32",1
"16/05/11","21:10",0.0,14.0,86.1,1005.2,291.5,1.1,1.4,319.6,0.00,11.8,17.3,"21:09:04",1
"16/05/11","21:20",0.0,13.7,87.2,1005.7,320.0,1.5,1.8,330.3,0.00,11.7,17.5,"21:15:20",1
"16/05/11","21:30",0.0,13.5,88.1,1005.5,320.0,1.3,2.4,339.5,0.00,11.6,17.2,"21:20:24",1
"16/05/11","21:40",0.0,13.3,89.1,1005.7,301.8,1.3,2.5,335.6,0.00,11.6,17.2,"21:31:20",1
"16/05/11","21:50",0.0,13.1,88.9,1006.0,300.5,1.2,1.7,320.9,0.00,11.4,17.2,"21:42:56",1
"16/05/11","22:00",0.0,13.2,88.0,1005.7,309.1,1.7,2.5,334.3,0.00,11.3,17.2,"21:53:52",1
"16/05/11","22:10",0.0,13.3,86.8,1006.0,310.1,1.7,3.3,341.7,0.00,11.2,17.0,"22:07:44",1
"16/05/11","22:20",0.0,13.4,86.1,1005.7,318.2,1.8,2.4,305.5,0.00,11.2,17.1,"22:17:44",1
"16/05/11","22:30",0.0,13.6,84.8,1006.7,321.0,2.1,2.8,325.5,0.00,11.1,16.6,"22:27:04",1
"16/05/11","22:40",0.0,13.6,85.1,1006.4,325.2,1.7,2.8,324.8,0.00,11.2,16.9,"22:33:44",1
"16/05/11","22:50",0.0,13.4,85.9,1006.9,330.0,1.7,2.9,340.0,0.00,11.1,16.9,"22:46:08",1
"16/05/11","23:00",0.0,13.3,86.2,1006.4,334.6,1.6,2.8,341.4,0.00,11.1,16.7,"22:58:56",1
"16/05/11","23:10",0.0,13.4,85.8,1006.9,334.1,1.8,3.1,339.4,0.00,11.1,16.8,"23:00:40",1
"16/05/11","23:20",0.0,13.1,85.9,1007.4,3.8,0.7,1.8,346.8,0.00,10.8,16.7,"23:10:56",1
"16/05/11","23:30",0.0,12.6,86.9,1007.6,330.1,1.3,2.5,338.0,0.00,10.5,16.7,"23:25:28",1
"16/05/11","23:40",0.0,12.2,88.6,1007.6,300.1,1.0,2.2,326.1,0.00,10.4,16.7,"23:39:28",1
"16/05/11","23:50",0.0,11.9,89.8,1007.4,320.3,1.2,1.9,333.5,0.00,10.3,16.5,"23:44:56",1
"16/05/11","24:00",0.0,11.7,90.9,1006.9,298.5,0.8,1.6,326.4,0.00,10.3,16.6,"23:50:24",1
